Location: American Medical Response
(33.3472°N, 96.5511°W)
Time: 08:15:43
(UTC+00:00)

Cosmos 2228 Rocket - Pass Details

Date: 08 December 2021
Orbit: 618 x 651 km, 82.5° (Epoch: 25 January)

Event Time Altitude Azimuth Distance (km) Brightness Sun altitude
Rises 12:15:31 0° 359° (N) 2,947 6.3 -12.8°
Reaches altitude 10° 12:17:49 10° 4° (N) 2,039 5.6 -12.4°
Maximum altitude 12:22:15 54° 82° (E) 783 3.9 -11.5°
Drops below altitude 10° 12:26:42 10° 160° (SSE) 2,042 6.3 -10.6°
Sets 12:28:59 0° 164° (SSE) 2,951 7.1 -10.2°
